N2XGL-1 Weather Reports


Display with metric or nautical units.
time (UTC)temp
F
wind
direction
speed
MPH
gust
MPH
rain 1hr
in
rain 24hr
in
rain mn
in
humidity
%
barometer
mb
20260903115859 56 45 1.0 3.0 0.00 0.00 0.00 78 1003.3
20260903115050 56 270 1.0 3.0 0.00 0.00 0.00 77 1003.4
20260903114239 56 202 1.0 3.0 0.00 0.00 0.00 78 1003.2
20260903113435 56 0 0.0 1.0 0.00 0.00 0.00 77 1003.0
20260903111801 56 0 0.0 2.0 0.00 0.00 0.00 78 1003.1
20260903110921 57 0 0.0 2.0 0.00 0.00 0.00 78 1003.2
20260903105930 57 338 2.0 6.0 0.00 0.00 0.00 78 1003.1
20260903105121 57 180 1.0 6.0 0.00 0.00 0.00 79 1003.0
20260903104214 57 180 1.0 3.0 0.00 0.00 0.00 79 1003.0
20260903103216 57 0 1.0 2.0 0.00 0.00 0.00 78 1003.1
20260903102410 58 0 1.0 2.0 0.00 0.00 0.00 77 1003.1
20260903101525 58 292 2.0 5.0 0.00 0.00 0.00 76 1003.2
20260903100640 58 112 2.0 4.0 0.00 0.00 0.00 79 1003.3
20260903095725 58 0 0.0 2.0 0.00 0.00 0.00 79 1003.2
20260903094750 59 68 1.0 2.0 0.00 0.00 0.00 80 1003.1
20260903093909 59 68 2.0 3.0 0.00 0.00 0.00 81 1003.3
20260903093825 59 68 2.0 3.0 0.00 0.00 0.00 81 1003.3
20260903092830 59 0 0.0 1.0 0.00 0.00 0.00 79 1003.4
20260903091846 60 0 1.0 2.0 0.00 0.00 0.00 80 1003.2
20260903090941 60 0 0.0 1.0 0.00 0.00 0.00 80 1003.2
20260903090006 60 135 1.0 3.0 0.00 0.00 0.00 79 1003.0
20260903085035 60 158 1.0 2.0 0.00 0.00 0.00 79 1002.9
20260903084055 60 0 0.0 1.0 0.00 0.00 0.00 78 1002.9
20260903083105 60 270 1.0 2.0 0.00 0.00 0.00 77 1002.9
20260903081537 61 248 1.0 2.0 0.00 0.00 0.00 74 1003.0
20260903081300 61 248 1.0 2.0 0.00 0.00 0.00 74 1003.0
20260903080340 61 0 0.0 1.0 0.00 0.00 0.00 74 1002.9
20260903075346 61 0 0.0 2.0 0.00 0.00 0.00 74 1003.0
20260903074350 62 0 0.0 0.0 0.00 0.00 0.00 72 1002.8
20260903073425 62 0 0.0 0.0 0.00 0.00 0.00 73 1002.9
20260903072510 63 0 0.0 1.0 0.00 0.00 0.00 74 1003.0
20260903071531 63 248 1.0 2.0 0.00 0.00 0.00 74 1003.1
20260903070720 64 270 1.0 2.0 0.00 0.00 0.00 74 1003.1
20260903065848 64 248 2.0 4.0 0.00 0.00 0.00 74 1003.2
20260903065730 64 248 2.0 4.0 0.00 0.00 0.00 74 1003.2
20260903064930 65 180 1.0 2.0 0.00 0.00 0.00 74 1003.1
20260903064025 65 0 0.0 1.0 0.00 0.00 0.00 74 1003.3
20260903063215 65 158 1.0 3.0 0.00 0.00 0.00 74 1003.4
20260903062345 65 158 2.0 3.0 0.00 0.00 0.00 72 1003.2
20260903061435 65 270 1.0 2.0 0.00 0.00 0.00 72 1002.8
20260903060613 65 0 0.0 1.0 0.00 0.00 0.00 71 1002.8
20260903055646 65 0 0.0 1.0 0.00 0.00 0.00 68 1003.0
20260903054830 65 270 1.0 2.0 0.00 0.00 0.00 67 1002.9
20260903053950 65 0 0.0 2.0 0.00 0.00 0.00 68 1003.2
20260903053140 65 270 1.0 2.0 0.00 0.00 0.00 68 1003.3
20260903052150 65 270 1.0 2.0 0.00 0.00 0.00 67 1003.6
20260903051307 65 0 0.0 1.0 0.00 0.00 0.00 67 1003.4
20260903050411 65 338 1.0 2.0 0.00 0.00 0.00 68 1003.4
20260903045501 66 270 1.0 3.0 0.00 0.00 0.00 68 1003.9
20260903044645 66 270 1.0 3.0 0.00 0.00 0.00 69 1003.7
20260903043730 66 0 0.0 1.0 0.00 0.00 0.00 67 1003.8
20260903042855 67 270 2.0 3.0 0.00 0.00 0.00 67 1003.9
20260903041938 68 270 1.0 3.0 0.00 0.00 0.00 62 1003.8
20260903041111 68 248 2.0 4.0 0.00 0.00 0.00 60 1003.7
20260903040150 69 270 1.0 2.0 0.00 0.00 0.00 59 1003.3
20260903035225 69 22 1.0 2.0 0.00 0.00 0.00 59 1003.0
20260903034356 70 112 3.0 4.0 0.00 0.00 0.00 58 1003.5
20260903033430 70 135 3.0 7.0 0.00 0.00 0.00 60 1003.7
20260903032545 70 135 2.0 3.0 0.00 0.00 0.00 58 1003.5
20260903031722 70 0 1.0 3.0 0.00 0.00 0.00 55 1002.8
20260903030750 71 0 3.0 7.0 0.00 0.00 0.00 56 1002.7
20260903025840 71 0 4.0 9.0 0.00 0.00 0.00 56 1002.8
20260903024845 72 0 3.0 9.0 0.00 0.00 0.00 55 1002.8
20260903023851 72 0 2.0 4.0 0.00 0.00 0.00 53 1002.8
20260903023010 73 22 3.0 5.0 0.00 0.00 0.00 52 1002.6
20260903022111 73 0 4.0 11.0 0.00 0.00 0.00 51 1002.6
20260903021236 74 0 3.0 7.0 0.00 0.00 0.00 50 1002.7
20260903015600 74 0 4.0 9.0 0.00 0.00 0.00 49 1002.5
20260903014615 75 22 3.0 6.0 0.00 0.00 0.00 48 1002.3
20260903013815 75 0 5.0 12.0 0.00 0.00 0.00 47 1002.1
20260903012925 76 0 4.0 7.0 0.00 0.00 0.00 46 1002.1
20260903012020 76 0 4.0 6.0 0.00 0.00 0.00 45 1002.0
20260903011116 77 22 3.0 4.0 0.00 0.00 0.00 44 1002.0
20260903010155 77 0 3.0 6.0 0.00 0.00 0.00 44 1001.8
20260903005354 78 0 3.0 7.0 0.00 0.00 0.00 43 1002.0
20260903005310 78 0 3.0 7.0 0.00 0.00 0.00 43 1002.0
20260903004326 79 0 2.0 4.0 0.00 0.00 0.00 42 1002.0
20260903003355 79 0 5.0 9.0 0.00 0.00 0.00 42 1002.0
20260903002541 79 0 4.0 8.0 0.00 0.00 0.00 41 1001.9
20260903001740 79 0 2.0 5.0 0.00 0.00 0.00 41 1001.8
20260903000010 80 270 4.0 9.0 0.00 0.00 0.00 41 1001.7
20260902235205 80 292 6.0 12.0 0.00 0.00 0.00 41 1001.9
20260902233305 78 248 10.0 15.0 0.00 0.00 0.00 44 1002.4
20260902232320 80 270 13.0 26.0 0.00 0.00 0.00 44 1002.5
20260902231430 83 270 10.0 26.0 0.00 0.00 0.00 36 1002.3
20260902230545 83 158 3.0 6.0 0.00 0.00 0.00 34 1001.8
20260902225610 83 180 1.0 4.0 0.00 0.00 0.00 35 1001.4
20260902224616 84 112 3.0 11.0 0.00 0.00 0.00 31 1001.2
20260902223815 85 112 3.0 6.0 0.00 0.00 0.00 33 1001.0
20260902222846 85 112 4.0 10.0 0.00 0.00 0.00 29 1000.9
20260902221900 85 90 3.0 10.0 0.00 0.00 0.00 31 1000.8
20260902220945 86 112 4.0 9.0 0.00 0.00 0.00 30 1001.1
20260902220135 87 90 3.0 9.0 0.00 0.00 0.00 29 1001.2
20260902215246 89 135 4.0 10.0 0.00 0.00 0.00 31 1001.3
20260902214410 89 158 3.0 8.0 0.00 0.00 0.00 27 1001.4
20260902213421 90 158 5.0 12.0 0.00 0.00 0.00 28 1001.5
20260902212605 90 180 5.0 10.0 0.00 0.00 0.00 28 1001.5
20260902211636 89 158 4.0 13.0 0.00 0.00 0.00 29 1001.6
20260902210831 89 112 3.0 7.0 0.00 0.00 0.00 28 1001.8
20260902210016 88 135 6.0 13.0 0.00 0.00 0.00 27 1002.1
20260902205211 88 90 6.0 13.0 0.00 0.00 0.00 32 1002.1
20260902204225 88 112 4.0 11.0 0.00 0.00 0.00 28 1002.3
20260902202550 88 68 5.0 11.0 0.00 0.00 0.00 28 1002.6
20260902201610 89 135 3.0 9.0 0.00 0.00 0.00 29 1002.7
20260902200735 88 158 3.0 7.0 0.00 0.00 0.00 29 1003.0
20260902195837 88 135 3.0 6.0 0.00 0.00 0.00 25 1003.0
20260902194945 87 90 5.0 11.0 0.00 0.00 0.00 30 1003.2
20260902194040 87 90 5.0 14.0 0.00 0.00 0.00 30 1003.2
20260902193100 86 45 4.0 9.0 0.00 0.00 0.00 28 1003.4
20260902192255 87 68 4.0 10.0 0.00 0.00 0.00 30 1003.4
20260902191345 86 68 2.0 5.0 0.00 0.00 0.00 28 1003.7
20260902190526 87 158 4.0 13.0 0.00 0.00 0.00 31 1003.8
20260902185545 86 112 4.0 9.0 0.00 0.00 0.00 30 1003.9
20260902184625 86 158 2.0 5.0 0.00 0.00 0.00 29 1004.1
20260902183654 86 158 4.0 7.0 0.00 0.00 0.00 33 1004.4
20260902182750 85 112 4.0 12.0 0.00 0.00 0.00 33 1004.6
20260902181806 85 135 5.0 13.0 0.00 0.00 0.00 32 1004.8
20260902180815 85 112 5.0 9.0 0.00 0.00 0.00 29 1005.0
20260902180007 85 135 4.0 13.0 0.00 0.00 0.00 32 1005.2
20260902175206 85 135 4.0 13.0 0.00 0.00 0.00 30 1005.3
20260902174406 84 112 5.0 11.0 0.00 0.00 0.00 32 1005.5
20260902173525 84 68 3.0 9.0 0.00 0.00 0.00 31 1005.5
20260902172621 83 180 3.0 6.0 0.00 0.00 0.00 32 1005.7
20260902171631 82 112 4.0 10.0 0.00 0.00 0.00 34 1005.7
20260902170706 81 90 3.0 6.0 0.00 0.00 0.00 35 1005.9
20260902165710 81 158 2.0 5.0 0.00 0.00 0.00 39 1006.0
20260902164750 81 158 2.0 6.0 0.00 0.00 0.00 37 1006.1
20260902163759 80 135 2.0 7.0 0.00 0.00 0.00 40 1006.2
20260902162956 78 180 2.0 5.0 0.00 0.00 0.00 46 1006.3
20260902162010 76 158 3.0 6.0 0.00 0.00 0.00 45 1006.2
20260902161112 75 158 2.0 4.0 0.00 0.00 0.00 46 1006.3
20260902160255 75 180 2.0 4.0 0.00 0.00 0.00 46 1006.5
20260902155457 74 202 2.0 4.0 0.00 0.00 0.00 50 1006.6
20260902155335 74 202 2.0 4.0 0.00 0.00 0.00 50 1006.6
20260902154455 73 225 1.0 4.0 0.00 0.00 0.00 52 1006.5
20260902152536 72 180 2.0 4.0 0.00 0.00 0.00 55 1006.4
20260902151555 70 158 2.0 4.0 0.00 0.00 0.00 55 1006.3
20260902150659 68 158 1.0 2.0 0.00 0.00 0.00 61 1006.3
20260902145751 65 180 1.0 2.0 0.00 0.00 0.00 63 1006.2
20260902144925 62 225 1.0 2.0 0.00 0.00 0.00 66 1006.3
20260902144105 61 158 1.0 2.0 0.00 0.00 0.00 69 1006.2
20260902143200 60 0 0.0 1.0 0.00 0.00 0.00 75 1006.4
20260902142241 59 270 1.0 2.0 0.00 0.00 0.00 76 1006.3
20260902141311 58 202 1.0 4.0 0.00 0.00 0.00 77 1006.3
20260902140505 58 270 1.0 2.0 0.00 0.00 0.00 82 1006.2
20260902135505 57 270 1.0 3.0 0.00 0.00 0.00 82 1006.1
20260902134705 57 135 1.0 2.0 0.00 0.00 0.00 83 1006.1
20260902133725 56 158 2.0 2.0 0.00 0.00 0.00 82 1006.2
20260902132845 55 135 1.0 2.0 0.00 0.00 0.00 79 1006.0
20260902131905 55 248 1.0 2.0 0.00 0.00 0.00 77 1006.0
20260902131000 56 0 0.0 2.0 0.00 0.00 0.00 77 1005.8
20260902130040 56 315 1.0 3.0 0.00 0.00 0.00 76 1005.8
20260902125226 56 45 1.0 2.0 0.00 0.00 0.00 77 1005.6
20260902124315 56 45 1.0 2.0 0.00 0.00 0.00 77 1005.7
20260902123421 57 338 1.0 3.0 0.00 0.00 0.00 75 1005.7
20260902122550 57 270 1.0 3.0 0.00 0.00 0.00 75 1005.7
20260902121745 57 0 0.0 2.0 0.00 0.00 0.00 74 1005.6
20260902120840 58 112 1.0 2.0 0.00 0.00 0.00 73 1005.5
20260902120041 58 68 1.0 2.0 0.00 0.00 0.00 73 1005.5